sat.trackr.live / text

‹ back to catalog

ICEYE-X44

NORAD 62707 · 2025-009DC

PAYLOAD ACTIVE UNKNOWN

§ Identity

Operator
Country
UAE
Launch date
2025-01-14
Launch site
AFWTR
Launch vehicle
Mass (kg)
RCS (m²)

External: N2YO · Heavens-Above · Gunter

§ Orbital elements

Epoch: 2026-09-22T14:08:38.385888Z

Period
96.23 min
Inclination
97.7000°
Eccentricity
0.0002230
Mean motion
14.96461234 rev/d
Perigee alt
576.3 km
Apogee alt
579.4 km
Semi-major
6,956.0 km
B*
1.3062e-4
RAAN
343.1697°
Arg perigee
123.1705°
Mean anomaly
236.9731°
Rev number
11,450

§ Raw data

ICEYE-X441 62707U 25009DC  26265.58933317  .00001425  00000+0  13062-3 0  99942 62707  97.7000 343.1697 0002230 123.1705 236.9731 14.96461234114508

JSON: /api/v1/satellites/62707 · /tle

For live sub-satellite position, see the globe view (requires WebGL).

§ Visibility from observer

Set your observer location to see the next 7 days of passes ≥ 10°. The values pass through the URL so the page stays shareable.

No JS? Fill the form by hand. The geolocation button needs JavaScript.

§ Radio — SatNOGS DB

ModeDescriptionDownlinkUplink
FM S-band telemetry 2.270 GHz

1 transmitter · refreshed weekly from db.satnogs.org